Location: Newcastle Observatory
(43.9158°N, 78.5831°W)
Time: 20:27:35
(UTC-04:00)

Amateur Radio Satellites - All Passes

Search period start: 27 August 2016 19:57
Search period end: 28 August 2016 19:57
Location: Newcastle Observatory, 43.9158°N, 78.5831°W

Satellite Date Start Highest point End Downlink Frequencies (MHz)
Time Altitude Azimuth
CANX-2 27 Aug 20:10:59 20:15:11 77° 76° (ENE) 20:19:24 2200.000
Cosmos 2491 27 Aug 20:12:59 20:21:06 42° 289° (WNW) 20:29:20 435.465 / 435.565
GOMX 1 27 Aug 20:15:01 20:17:56 15° 273° (W) 20:20:56 467.674
CUTE 1.7 + AOD 2 27 Aug 20:17:06 20:21:18 78° 77° (ENE) 20:25:31 437.475
Cubesat XI-IV 27 Aug 20:17:26 20:20:14 14° 271° (W) 20:23:02 437.490
DOVE 4 27 Aug 20:20:18 20:24:37 26° 267° (W) 20:29:03 437.250
AAUSAT CUBESAT 2 27 Aug 20:21:37 20:25:18 33° 70° (ENE) 20:29:00 437.432
COMPASS 1 27 Aug 20:29:14 20:33:13 51° 73° (ENE) 20:37:15 437.405
CUTE-I 27 Aug 20:31:14 20:32:20 11° 273° (W) 20:33:25 437.470
YUBILEINY 27 Aug 20:33:06 20:37:30 15° 286° (WNW) 20:41:53 435.215
BEESAT 2 27 Aug 20:35:15 20:38:14 20° 247° (WSW) 20:41:13 435.950
PCSat 27 Aug 20:39:05 20:44:04 35° 49° (NE) 20:49:00 145.827
Cosmos 2504 27 Aug 20:47:58 20:53:42 26° 277° (W) 20:59:23 435.465 / 435.565
HO-68 27 Aug 20:57:17 21:04:14 51° 260° (W) 21:11:14 435.675
CINEMA 3 27 Aug 21:01:18 21:05:45 32° 265° (W) 21:10:12 145.822/145.860
STRAND 1 27 Aug 21:01:25 21:06:29 68° 287° (WNW) 21:11:33 437.568
Oscar 11 27 Aug 21:03:13 21:07:13 39° 70° (ENE) 21:11:14 145.826/435.025
PRISM 27 Aug 21:03:43 21:06:14 15° 92° (E) 21:08:46 437.425
AIST 2 27 Aug 21:07:32 21:11:32 42° 50° (NE) 21:15:30 435.215
FUNcube-1 27 Aug 21:10:25 21:14:38 44° 72° (ENE) 21:18:47 145.935
UWE-3 27 Aug 21:16:52 21:21:27 86° 76° (ENE) 21:25:56 435.000/436.395/437.385
CUBEBUG 2 27 Aug 21:19:08 21:23:47 62° 259° (W) 21:28:19 437.445
AIST 1 27 Aug 21:24:44 21:29:03 53° 266° (W) 21:33:18
SEEDS 27 Aug 21:26:07 21:29:37 26° 265° (W) 21:33:07 437.485
ZACube-1 27 Aug 21:31:37 21:36:05 80° 75° (ENE) 21:40:28 437.345
AAUSAT CUBESAT 2 27 Aug 21:57:41 22:00:50 21° 266° (W) 22:04:02 437.432
DELFI C3 27 Aug 22:00:18 22:04:12 69° 76° (ENE) 22:08:09 145.870
Cosmos 2499 27 Aug 22:00:53 22:03:12 12° 56° (NE) 22:05:31 435.465 / 435.565
COMPASS 1 27 Aug 22:06:53 22:09:06 14° 270° (W) 22:11:19 437.405
HUMSAT D 27 Aug 22:18:14 22:22:17 53° 73° (ENE) 22:26:19 437.325/437.525
PCSat 27 Aug 22:22:29 22:27:30 39° 248° (WSW) 22:32:28 145.827
AUBIESAT-1 27 Aug 22:25:40 22:29:40 29° 62° (ENE) 22:33:38 437.475
ANTELSAT 27 Aug 22:29:18 22:31:37 14° 90° (E) 22:33:54 437.575/2403.000
M-CUBED/EXP-1 PRIME 27 Aug 22:30:55 22:35:17 39° 64° (ENE) 22:39:39 437.505
PRISM 27 Aug 22:37:46 22:41:48 48° 288° (WNW) 22:45:49 437.425
Oscar 11 27 Aug 22:40:21 22:43:30 20° 267° (W) 22:46:40 145.826/435.025
AIST 2 27 Aug 22:46:32 22:49:46 22° 247° (WSW) 22:52:58 435.215
FUNcube-1 27 Aug 22:47:59 22:51:04 18° 268° (W) 22:54:07 145.935
GONETS M04 27 Aug 22:48:32 22:56:44 40° 70° (ENE) 23:04:52
TIGRISAT 27 Aug 22:59:09 23:02:51 28° 95° (E) 23:06:30 435.000
ESTCUBE 1 27 Aug 22:59:43 23:03:30 28° 67° (ENE) 23:07:19 437.505/2401.250
AISAT 27 Aug 23:08:21 23:11:38 21° 64° (ENE) 23:14:57 437.250
ZACube-1 27 Aug 23:12:26 23:12:52 10° 272° (W) 23:13:18 437.345
UKube-1 27 Aug 23:18:18 23:20:26 14° 61° (ENE) 23:22:33 .
UNISAT 6 27 Aug 23:27:25 23:31:41 61° 101° (E) 23:35:54 437.425
CUSAT 1 27 Aug 23:41:34 23:44:12 30° 91° (E) 23:47:25 437.405
Cosmos 2499 27 Aug 23:50:50 23:57:54 67° 79° (E) 00:04:59 435.465 / 435.565
O/OREOS (USA 219) 27 Aug 23:52:20 23:56:50 51° 63° (ENE) 00:01:19 437.305
VELOX 1 27 Aug 23:54:26 23:58:45 55° 72° (ENE) 00:03:08 145.980
HUMSAT D 27 Aug 23:56:05 23:58:13 14° 269° (W) 00:00:22 437.325/437.525
CUBEBUG 1 27 Aug 23:56:12 00:00:34 69° 74° (ENE) 00:05:00 437.445
SO-50 27 Aug 23:58:47 00:03:24 45° 118° (ESE) 00:08:00 436.795
AUBIESAT-1 27 Aug 23:59:45 00:03:58 34° 258° (WSW) 00:08:12 437.475
QB50P1 28 Aug 00:00:23 00:03:32 20° 93° (E) 00:06:38 145.935-145.965
ANTELSAT 28 Aug 00:04:29 00:08:41 53° 287° (WNW) 00:12:49 437.575/2403.000
M-CUBED/EXP-1 PRIME 28 Aug 00:05:55 00:09:49 26° 261° (W) 00:13:46 437.505
POPSAT HIP 1 28 Aug 00:10:08 00:13:38 25° 95° (E) 00:17:06 437.405
DX 1 28 Aug 00:11:24 00:15:41 57° 73° (ENE) 00:20:00 434.975-435.025
SPROUT 28 Aug 00:13:36 00:17:41 43° 71° (ENE) 00:21:48 437.525
50 SAT 28 Aug 00:23:21 00:26:54 66° 258° (WSW) 00:30:29 437.505
TISAT 1 28 Aug 00:33:41 00:36:30 18° 64° (ENE) 00:39:20 437.305
TIGRISAT 28 Aug 00:35:51 00:39:29 27° 293° (WNW) 00:43:04 435.000
ESTCUBE 1 28 Aug 00:36:16 00:40:13 31° 264° (W) 00:44:13 437.505/2401.250
DUCHIFAT 1 28 Aug 00:37:20 00:41:22 44° 99° (E) 00:45:21 145.980
DANDE 28 Aug 00:39:43 00:42:09 39° 96° (E) 00:44:50 436.750
QB50P2 28 Aug 00:40:05 00:44:17 58° 101° (E) 00:48:25 145.880/145.840
POLYITAN 1 28 Aug 00:42:37 00:46:47 58° 100° (E) 00:50:55 437.675
AISAT 28 Aug 00:43:35 00:47:49 43° 261° (W) 00:52:07 437.250
GONETS M04 28 Aug 00:45:20 00:53:44 50° 271° (W) 01:02:07
NANOSAT C BR1 28 Aug 00:51:06 00:55:19 68° 102° (ESE) 00:59:29 145.865
UKube-1 28 Aug 00:51:38 00:55:55 67° 257° (WSW) 01:00:16 .
UNISAT 6 28 Aug 01:05:39 01:07:55 14° 298° (WNW) 01:10:09 437.425
JAS-2 28 Aug 01:11:23 01:18:05 59° 101° (E) 01:25:30 435.910
ITUPSAT 1 28 Aug 01:15:05 01:16:32 11° 57° (ENE) 01:18:00 437.325
CUSAT 1 28 Aug 01:25:19 01:26:38 12° 299° (WNW) 01:28:03 437.405
Oscar 19 28 Aug 01:26:59 01:29:42 14° 89° (E) 01:32:23 437.125/150
BUGSAT 1 28 Aug 01:31:53 01:36:03 77° 101° (ESE) 01:40:07 437.445
O/OREOS (USA 219) 28 Aug 01:32:47 01:35:49 18° 260° (W) 01:38:51 437.305
VELOX 1 28 Aug 01:32:57 01:35:34 15° 269° (W) 01:38:11 145.980
RS-15 28 Aug 01:33:58 01:44:58 55° 112° (ESE) 01:56:33 29.354- 29.394
QB50P1 28 Aug 01:35:32 01:39:26 37° 290° (WNW) 01:43:18 145.935-145.965
CUBEBUG 1 28 Aug 01:35:40 01:37:20 12° 271° (W) 01:39:01 437.445
SO-50 28 Aug 01:39:49 01:44:03 29° 316° (NW) 01:48:15 436.795
Cosmos 2499 28 Aug 01:45:14 01:50:17 21° 279° (W) 01:55:21 435.465 / 435.565
SWISSCUBE 28 Aug 01:45:19 01:49:07 24° 64° (ENE) 01:52:54 437.505
POPSAT HIP 1 28 Aug 01:45:43 01:49:25 30° 292° (WNW) 01:53:05 437.405
DX 1 28 Aug 01:49:53 01:52:14 14° 269° (W) 01:54:36 434.975-435.025
SPROUT 28 Aug 01:50:52 01:53:50 18° 268° (W) 01:56:49 437.525
BEESAT 28 Aug 02:01:59 02:06:08 31° 67° (ENE) 02:10:18 436.000
TISAT 1 28 Aug 02:07:42 02:11:48 47° 261° (W) 02:15:56 437.305
DUCHIFAT 1 28 Aug 02:13:53 02:16:44 18° 296° (WNW) 02:19:34 145.980
QB50P2 28 Aug 02:17:18 02:19:36 15° 298° (WNW) 02:21:55 145.880/145.840
POLYITAN 1 28 Aug 02:19:51 02:22:07 14° 298° (WNW) 02:24:23 437.675
PHONESAT 2.4 28 Aug 02:20:42 02:22:46 17° 157° (SSE) 02:24:50 2401.200-2431.200
NANOSAT C BR1 28 Aug 02:28:41 02:30:29 13° 299° (WNW) 02:32:17 145.865
Gurwin Techsat 1B 28 Aug 02:37:31 02:42:10 30° 95° (E) 02:46:47 435.225
ITUPSAT 1 28 Aug 02:48:50 02:53:37 85° 72° (ENE) 02:58:23 437.325
JAS-2 28 Aug 02:57:07 03:02:49 31° 296° (WNW) 03:09:01 435.910
Oscar 19 28 Aug 03:04:22 03:09:35 76° 287° (WNW) 03:14:46 437.125/150
AO-7 28 Aug 03:06:12 03:08:14 11° 84° (E) 03:10:16 29.400- 29.500
BUGSAT 1 28 Aug 03:09:39 03:10:47 11° 300° (WNW) 03:11:54 437.445
SWISSCUBE 28 Aug 03:22:13 03:26:41 40° 262° (W) 03:31:10 437.505
BEESAT 28 Aug 03:39:41 03:43:53 30° 264° (W) 03:48:05 436.000
KKS-1 28 Aug 03:42:34 03:46:41 36° 69° (ENE) 03:50:48 437.445
RS-15 28 Aug 03:46:10 03:57:34 54° 317° (NW) 04:09:34 29.354- 29.394
MOZHAYETS 4 28 Aug 03:50:00 03:54:26 53° 72° (ENE) 03:58:53
PHONESAT 2.4 28 Aug 03:55:52 03:58:42 38° 173° (S) 04:01:31 2401.200-2431.200
Gurwin Techsat 1B 28 Aug 04:17:17 04:22:09 38° 293° (WNW) 04:27:01 435.225
STARS 28 Aug 04:17:34 04:21:44 42° 70° (ENE) 04:25:56 437.465
ITAMSAT 1 28 Aug 04:19:03 04:24:16 76° 104° (ESE) 04:29:26 435.822/435.867
Cosmos 2491 28 Aug 04:24:39 04:31:38 25° 63° (ENE) 04:38:34 435.465 / 435.565
ITUPSAT 1 28 Aug 04:30:59 04:32:03 11° 272° (W) 04:33:09 437.325
Oscar 19 28 Aug 04:46:20 04:48:01 12° 305° (NW) 04:49:40 437.125/150
AO-7 28 Aug 04:54:24 05:02:39 63° 104° (ESE) 05:10:50 29.400- 29.500
CUBESAT XI-V 28 Aug 05:10:52 05:15:17 48° 71° (ENE) 05:19:46 437.345
KKS-1 28 Aug 05:19:45 05:23:20 23° 266° (W) 05:26:55 437.445
BRITE-PL 28 Aug 05:25:20 05:26:58 11° 84° (E) 05:28:36 437.365/2234.400
MOZHAYETS 4 28 Aug 05:29:05 05:31:56 16° 269° (W) 05:34:47
PHONESAT 2.4 28 Aug 05:31:59 05:34:47 36° 190° (S) 05:37:34 2401.200-2431.200
AO-85 28 Aug 05:36:56 05:41:57 44° 118° (ESE) 05:46:45 145.980
YUBILEINY 28 Aug 05:41:19 05:48:17 27° 81° (E) 05:55:14 435.215
STARS 28 Aug 05:55:01 05:58:16 20° 267° (W) 06:01:33 437.465
ITAMSAT 1 28 Aug 06:00:02 06:03:06 16° 301° (WNW) 06:06:10 435.822/435.867
RS-15 28 Aug 06:03:42 06:13:42 29° 349° (N) 06:23:58 29.354- 29.394
Cosmos 2491 28 Aug 06:20:38 06:29:29 78° 265° (W) 06:38:17 435.465 / 435.565
HORYU 2 28 Aug 06:30:29 06:34:55 88° 95° (E) 06:39:20 437.375
GOMX 1 28 Aug 06:35:33 06:39:45 23° 91° (E) 06:43:47 467.674
LilacSat-2 28 Aug 06:40:10 06:42:46 18° 93° (E) 06:45:22 437.200
STRAND 1 28 Aug 06:40:37 06:44:51 27° 65° (ENE) 06:49:04 437.568
DOVE 4 28 Aug 06:42:55 06:43:42 10° 85° (E) 06:44:28 437.250
AO-7 28 Aug 06:47:47 06:54:58 34° 304° (NW) 07:02:06 29.400- 29.500
CUBESAT XI-V 28 Aug 06:49:45 06:52:56 18° 269° (W) 06:56:09 437.345
SO-50 28 Aug 06:49:54 06:51:59 13° 30° (NNE) 06:54:04 436.795
Cubesat XI-IV 28 Aug 06:50:31 06:55:01 27° 95° (E) 06:59:30 437.490
BRITE-PL 28 Aug 07:00:32 07:06:18 78° 102° (ESE) 07:11:54 437.365/2234.400
NOAA 15 28 Aug 07:01:48 07:06:53 44° 99° (E) 07:11:56 137.62
CUTE-I 28 Aug 07:02:01 07:06:52 35° 97° (E) 07:11:41 437.470
PHONESAT 2.4 28 Aug 07:08:56 07:10:40 14° 205° (SSW) 07:12:23 2401.200-2431.200
AO-85 28 Aug 07:17:54 07:22:34 32° 315° (NW) 07:27:00 145.980
Cosmos 2504 28 Aug 07:32:44 07:40:41 49° 90° (E) 07:48:09 435.465 / 435.565
YUBILEINY 28 Aug 07:35:29 07:44:16 70° 281° (W) 07:53:07 435.215
NOAA 18 28 Aug 07:45:29 07:50:59 73° 103° (ESE) 07:56:25 137.9125
PRISM 28 Aug 07:55:02 07:57:17 14° 62° (ENE) 07:59:31 437.425
CANX-2 28 Aug 07:56:30 07:58:11 12° 89° (E) 07:59:52 2200.000
CUTE 1.7 + AOD 2 28 Aug 08:02:29 08:04:12 12° 89° (E) 08:05:56 437.475
HORYU 2 28 Aug 08:09:40 08:10:47 11° 302° (WNW) 08:11:52 437.375
GOMX 1 28 Aug 08:12:51 08:18:07 51° 289° (WNW) 08:23:08 467.674
LilacSat-2 28 Aug 08:13:46 08:17:11 33° 289° (WNW) 08:20:35 437.200
DOVE 4 28 Aug 08:17:05 08:22:13 88° 109° (ESE) 08:27:00 437.250
STRAND 1 28 Aug 08:19:02 08:23:50 40° 262° (W) 08:28:39 437.568
Cosmos 2491 28 Aug 08:20:01 08:24:46 16° 286° (WNW) 08:29:32 435.465 / 435.565
RS-15 28 Aug 08:20:17 08:31:10 34° 24° (NNE) 08:42:04 29.354- 29.394
HO-68 28 Aug 08:23:34 08:29:45 30° 95° (E) 08:35:53 435.675
ISS 28 Aug 08:28:34 08:30:51 18° 134° (SE) 08:33:08 145.825
SO-50 28 Aug 08:28:54 08:33:30 58° 51° (NE) 08:37:55 436.795
Cubesat XI-IV 28 Aug 08:30:14 08:35:12 41° 292° (WNW) 08:40:10 437.490
BRITE-PL 28 Aug 08:40:20 08:44:04 18° 300° (WNW) 08:47:46 437.365/2234.400
NOAA 15 28 Aug 08:42:02 08:46:25 27° 296° (WNW) 08:50:49 137.62
CUTE-I 28 Aug 08:42:09 08:46:51 33° 294° (WNW) 08:51:31 437.470
CINEMA 3 28 Aug 08:54:23 08:58:53 60° 100° (E) 09:03:09 145.822/145.860
UWE-3 28 Aug 09:06:42 09:09:00 14° 90° (E) 09:11:17 435.000/436.395/437.385
SEEDS 28 Aug 09:07:41 09:11:43 44° 99° (E) 09:15:45 437.485
BEESAT 3 28 Aug 09:08:57 09:10:46 13° 110° (ESE) 09:12:35 437.485
CUBEBUG 2 28 Aug 09:09:20 09:12:44 23° 94° (E) 09:16:05 437.445
ZACube-1 28 Aug 09:20:22 09:22:17 13° 90° (E) 09:24:10 437.345
Cosmos 2504 28 Aug 09:26:34 09:34:11 38° 288° (WNW) 09:41:24 435.465 / 435.565
NOAA 18 28 Aug 09:27:26 09:31:02 18° 302° (WNW) 09:34:38 137.9125
PRISM 28 Aug 09:28:07 09:32:07 56° 259° (W) 09:36:12 437.425
ANTELSAT 28 Aug 09:29:16 09:32:15 18° 64° (ENE) 09:35:14 437.575/2403.000
CANX-2 28 Aug 09:30:15 09:34:27 63° 285° (WNW) 09:38:39 2200.000
CUTE 1.7 + AOD 2 28 Aug 09:36:15 09:40:27 62° 286° (WNW) 09:44:38 437.475
AAUSAT CUBESAT 2 28 Aug 09:37:14 09:41:18 51° 99° (E) 09:45:23 437.432
YUBILEINY 28 Aug 09:38:06 09:42:58 16° 305° (NW) 09:47:53 435.215
COMPASS 1 28 Aug 09:45:47 09:49:59 82° 100° (E) 09:54:11 437.405
AIST 1 28 Aug 09:54:53 09:59:13 83° 99° (E) 10:03:38
DOVE 4 28 Aug 09:56:46 09:59:04 13° 302° (WNW) 10:01:18 437.250
TIGRISAT 28 Aug 09:58:48 10:02:50 31° 69° (ENE) 10:06:49 435.000
ISS 28 Aug 10:03:44 10:07:01 66° 331° (NNW) 10:10:17 145.825
CUSAT 1 28 Aug 10:09:19 10:15:23 44° 75° (ENE) 10:22:35 437.405
SO-50 28 Aug 10:10:27 10:13:30 18° 250° (WSW) 10:16:29 436.795
HO-68 28 Aug 10:10:49 10:17:47 56° 293° (WNW) 10:24:42 435.675
Oscar 11 28 Aug 10:24:34 10:28:53 67° 101° (E) 10:33:10 145.826/435.025
UNISAT 6 28 Aug 10:27:02 10:31:34 64° 74° (ENE) 10:36:03 437.425
BEESAT 2 28 Aug 10:27:14 10:31:01 45° 118° (ESE) 10:34:49 435.950
CINEMA 3 28 Aug 10:32:51 10:35:29 15° 299° (WNW) 10:38:04 145.822/145.860
FUNcube-1 28 Aug 10:32:56 10:37:05 77° 100° (E) 10:41:13 145.935
RS-15 28 Aug 10:33:35 10:46:02 78° 53° (NE) 10:58:17 29.354- 29.394
UWE-3 28 Aug 10:41:43 10:45:47 50° 288° (WNW) 10:49:47 435.000/436.395/437.385
BEESAT 3 28 Aug 10:44:03 10:47:55 61° 307° (NW) 10:51:51 437.485
SEEDS 28 Aug 10:44:14 10:47:06 18° 295° (WNW) 10:49:58 437.485
CUBEBUG 2 28 Aug 10:45:39 10:49:25 31° 291° (WNW) 10:53:06 437.445
QB50P1 28 Aug 10:54:21 10:57:24 19° 65° (ENE) 11:00:27 145.935-145.965
ZACube-1 28 Aug 10:54:51 10:58:57 56° 287° (WNW) 11:02:59 437.345
POPSAT HIP 1 28 Aug 11:04:00 11:07:24 24° 66° (ENE) 11:10:49 437.405
ANTELSAT 28 Aug 11:04:05 11:08:35 54° 260° (W) 11:13:01 437.575/2403.000
DELFI C3 28 Aug 11:11:00 11:15:01 85° 288° (WNW) 11:19:02 145.870
DANDE 28 Aug 11:11:38 11:16:51 52° 78° (ENE) 11:23:38 436.750
AAUSAT CUBESAT 2 28 Aug 11:13:55 11:16:24 16° 296° (WNW) 11:18:53 437.432
PCSat 28 Aug 11:23:14 11:27:17 22° 107° (ESE) 11:31:22 145.827
COMPASS 1 28 Aug 11:24:07 11:24:54 10° 300° (WNW) 11:25:42 437.405
JAS-2 28 Aug 11:27:17 11:31:29 25° 61° (ENE) 11:35:56 435.910
DUCHIFAT 1 28 Aug 11:30:16 11:34:14 39° 70° (ENE) 11:38:12 145.980
QB50P2 28 Aug 11:33:42 11:37:50 51° 72° (ENE) 11:42:00 145.880/145.840
HUMSAT D 28 Aug 11:35:29 11:39:35 84° 103° (ESE) 11:43:41 437.325/437.525
TIGRISAT 28 Aug 11:35:33 11:39:30 28° 265° (W) 11:43:24 435.000
POLYITAN 1 28 Aug 11:36:12 11:40:21 52° 72° (ENE) 11:44:31 437.675
AUBIESAT-1 28 Aug 11:38:54 11:40:53 13° 94° (E) 11:42:47 437.475
ISS 28 Aug 11:41:13 11:43:55 23° 350° (N) 11:46:37 145.825
NANOSAT C BR1 28 Aug 11:44:09 11:48:20 59° 74° (ENE) 11:52:32 145.865
M-CUBED/EXP-1 PRIME 28 Aug 11:44:23 11:47:23 20° 97° (E) 11:50:13 437.505
CUBEBUG 1 28 Aug 11:45:35 11:47:10 12° 89° (E) 11:48:44 437.445
CUSAT 1 28 Aug 11:51:25 11:57:21 38° 268° (W) 12:04:16 437.405
GONETS M04 28 Aug 11:51:28 11:59:29 42° 86° (E) 12:07:34
HO-68 28 Aug 12:01:21 12:03:58 12° 314° (NW) 12:06:35 435.675
Oscar 11 28 Aug 12:02:26 12:04:29 13° 299° (WNW) 12:06:30 145.826/435.025
BEESAT 2 28 Aug 12:05:58 12:09:03 21° 317° (NW) 12:12:09 435.950
UNISAT 6 28 Aug 12:06:22 12:08:41 14° 270° (W) 12:10:59 437.425
FUNcube-1 28 Aug 12:11:44 12:12:43 11° 300° (WNW) 12:13:42 145.935
BUGSAT 1 28 Aug 12:22:21 12:26:33 63° 74° (ENE) 12:30:47 437.445
BEESAT 3 28 Aug 12:25:35 12:26:25 11° 327° (NNW) 12:27:15 437.485
ESTCUBE 1 28 Aug 12:26:35 12:31:01 48° 100° (E) 12:35:23 437.505/2401.250
Cosmos 2499 28 Aug 12:28:13 12:36:04 54° 91° (E) 12:43:22 435.465 / 435.565
QB50P1 28 Aug 12:28:50 12:32:53 42° 261° (W) 12:36:58 145.935-145.965
AO-85 28 Aug 12:29:31 12:30:25 10° 27° (NNE) 12:31:17 145.980
AISAT 28 Aug 12:32:19 12:36:19 31° 96° (E) 12:40:16 437.250
UKube-1 28 Aug 12:38:14 12:41:12 18° 93° (E) 12:44:09 .
POPSAT HIP 1 28 Aug 12:39:09 12:43:02 33° 263° (W) 12:46:56 437.405
AIST 2 28 Aug 12:44:10 12:48:10 54° 120° (ESE) 12:52:13 435.215
Oscar 19 28 Aug 12:44:35 12:48:44 25° 64° (ENE) 12:52:54 437.125/150
RS-15 28 Aug 12:47:04 12:57:27 34° 256° (WSW) 13:07:41 29.354- 29.394
DANDE 28 Aug 12:54:59 12:59:30 26° 268° (W) 13:04:57 436.750
PCSat 28 Aug 13:04:55 13:10:15 58° 305° (NW) 13:15:38 145.827
DUCHIFAT 1 28 Aug 13:06:57 13:10:04 20° 267° (W) 13:13:11 145.980
JAS-2 28 Aug 13:11:18 13:16:17 45° 262° (W) 13:21:37 435.910
QB50P2 28 Aug 13:11:26 13:13:56 15° 269° (W) 13:16:27 145.880/145.840
AUBIESAT-1 28 Aug 13:11:46 13:15:45 51° 293° (WNW) 13:19:25 437.475
POLYITAN 1 28 Aug 13:13:59 13:16:27 15° 269° (W) 13:18:56 437.675
M-CUBED/EXP-1 PRIME 28 Aug 13:18:14 13:22:05 36° 296° (WNW) 13:25:38 437.505
ISS 28 Aug 13:18:24 13:21:07 23° 10° (N) 13:23:52 145.825
VELOX 1 28 Aug 13:19:16 13:23:46 89° 277° (W) 13:28:13 145.980
CUBEBUG 1 28 Aug 13:19:31 13:23:57 71° 285° (WNW) 13:28:19 437.445
NANOSAT C BR1 28 Aug 13:22:26 13:24:27 13° 270° (W) 13:26:27 145.865
50 SAT 28 Aug 13:23:31 13:27:08 66° 286° (WNW) 13:30:45 437.505
SPROUT 28 Aug 13:33:39 13:37:57 71° 102° (ESE) 13:42:12 437.525
DX 1 28 Aug 13:34:05 13:38:30 89° 92° (E) 13:42:53 434.975-435.025
GONETS M04 28 Aug 13:47:54 13:56:13 46° 287° (WNW) 14:04:39
TISAT 1 28 Aug 13:50:35 13:53:58 23° 94° (E) 13:57:18 437.305
Gurwin Techsat 1B 28 Aug 13:59:46 14:04:55 54° 71° (ENE) 14:10:07 435.225
BUGSAT 1 28 Aug 14:00:34 14:02:20 12° 270° (W) 14:04:07 437.445
ITAMSAT 1 28 Aug 14:01:06 14:04:40 19° 60° (ENE) 14:08:15 435.822/435.867
ESTCUBE 1 28 Aug 14:04:16 14:07:28 19° 296° (WNW) 14:10:38 437.505/2401.250
AO-7 28 Aug 14:04:55 14:11:09 24° 50° (NE) 14:17:22 29.400- 29.500
O/OREOS (USA 219) 28 Aug 14:05:59 14:10:15 44° 107° (ESE) 14:14:35 437.305
AO-85 28 Aug 14:07:48 14:12:02 49° 50° (NE) 14:15:56 145.980
AISAT 28 Aug 14:08:55 14:12:41 27° 293° (WNW) 14:16:26 437.250
UKube-1 28 Aug 14:13:19 14:17:28 44° 289° (WNW) 14:21:35 .
Cosmos 2499 28 Aug 14:22:27 14:29:28 32° 290° (WNW) 14:36:04 435.465 / 435.565
Oscar 19 28 Aug 14:22:51 14:27:46 45° 261° (W) 14:32:47 437.125/150
AIST 2 28 Aug 14:23:51 14:26:57 20° 319° (NW) 14:30:05 435.215
ITUPSAT 1 28 Aug 14:48:46 14:52:12 19° 93° (E) 14:55:37 437.325
PCSat 28 Aug 14:52:10 14:54:51 14° 327° (NNW) 14:57:33 145.827
ISS 28 Aug 14:54:43 14:58:01 72° 30° (NNE) 15:01:16 145.825
VELOX 1 28 Aug 14:58:30 14:59:30 11° 302° (WNW) 15:00:29 145.980
SPROUT 28 Aug 15:11:29 15:13:19 13° 299° (WNW) 15:15:09 437.525
DX 1 28 Aug 15:13:00 15:13:59 11° 302° (WNW) 15:14:58 434.975-435.025
SWISSCUBE 28 Aug 15:20:34 15:25:09 44° 99° (E) 15:29:42 437.505
TISAT 1 28 Aug 15:25:53 15:29:39 32° 291° (WNW) 15:33:23 437.305
BEESAT 28 Aug 15:37:32 15:42:15 59° 101° (ESE) 15:46:57 436.000
ITAMSAT 1 28 Aug 15:38:32 15:43:39 62° 258° (WSW) 15:48:49 435.822/435.867
Gurwin Techsat 1B 28 Aug 15:41:17 15:45:12 21° 268° (W) 15:49:08 435.225
MOZHAYETS 4 28 Aug 15:45:52 15:47:15 11° 88° (E) 15:48:37
O/OREOS (USA 219) 28 Aug 15:46:24 15:49:53 21° 306° (NW) 15:53:24 437.305
AO-85 28 Aug 15:49:16 15:52:00 17° 250° (WSW) 15:54:37 145.980
YUBILEINY 28 Aug 15:49:33 15:53:53 14° 54° (NE) 15:58:11 435.215
AO-7 28 Aug 15:54:31 16:02:55 90° 248° (WSW) 16:11:19 29.400- 29.500
HORYU 2 28 Aug 15:56:33 15:58:03 12° 59° (ENE) 15:59:33 437.375
ITUPSAT 1 28 Aug 16:25:42 16:30:17 48° 289° (WNW) 16:34:52 437.325
ISS 28 Aug 16:32:02 16:34:07 16° 227° (SW) 16:36:13 145.825
BRITE-PL 28 Aug 16:37:05 16:39:41 14° 57° (ENE) 16:42:22 437.365/2234.400
NOAA 15 28 Aug 16:47:26 16:49:30 12° 55° (NE) 16:51:35 137.62
CUTE-I 28 Aug 16:50:46 16:51:18 10° 54° (NE) 16:51:51 437.470
SWISSCUBE 28 Aug 16:59:01 17:02:39 22° 296° (WNW) 17:06:18 437.505
KKS-1 28 Aug 17:08:05 17:12:31 60° 101° (E) 17:16:54 437.445
CUBESAT XI-V 28 Aug 17:08:23 17:09:39 11° 88° (E) 17:10:55 437.345
BEESAT 28 Aug 17:16:28 17:19:34 18° 299° (WNW) 17:22:40 436.000
MOZHAYETS 4 28 Aug 17:20:22 17:24:57 77° 286° (WNW) 17:29:32
BEESAT 3 28 Aug 17:23:11 17:25:46 16° 39° (NE) 17:28:21 437.485
LilacSat-2 28 Aug 17:24:46 17:26:19 12° 63° (ENE) 17:27:53 437.200
Cosmos 2504 28 Aug 17:24:55 17:29:13 16° 60° (ENE) 17:33:27 435.465 / 435.565
Cosmos 2491 28 Aug 17:28:59 17:35:43 26° 80° (E) 17:42:28 435.465 / 435.565
HORYU 2 28 Aug 17:29:28 17:33:56 85° 256° (WSW) 17:38:25 437.375
NOAA 18 28 Aug 17:34:15 17:38:35 24° 61° (ENE) 17:42:55 137.9125
STARS 28 Aug 17:41:28 17:45:51 67° 102° (ESE) 17:50:12 437.465
YUBILEINY 28 Aug 17:43:59 17:52:44 65° 78° (ENE) 18:01:22 435.215
GOMX 1 28 Aug 17:44:24 17:48:44 28° 65° (ENE) 17:53:15 467.674
DOVE 4 28 Aug 17:48:03 17:51:00 15° 59° (ENE) 17:53:59 437.250
AO-7 28 Aug 17:51:05 17:56:43 20° 270° (W) 18:02:24 29.400- 29.500
BRITE-PL 28 Aug 18:12:23 18:17:17 86° 261° (W) 18:22:38 437.365/2234.400
Cubesat XI-IV 28 Aug 18:13:39 18:18:48 52° 70° (ENE) 18:23:59 437.490
NOAA 15 28 Aug 18:23:10 18:28:25 80° 74° (ENE) 18:33:44 137.62
CUTE-I 28 Aug 18:25:04 18:30:20 66° 72° (ENE) 18:35:38 437.470
CUBESAT XI-V 28 Aug 18:42:53 18:47:36 82° 286° (WNW) 18:52:20 437.345
BEESAT 2 28 Aug 18:43:48 18:47:39 44° 50° (NE) 18:51:30 435.950
KKS-1 28 Aug 18:45:57 18:48:36 16° 299° (WNW) 18:51:14 437.445
CANX-2 28 Aug 18:51:37 18:52:54 11° 61° (ENE) 18:54:11 2200.000
HO-68 28 Aug 18:54:11 19:00:03 28° 58° (ENE) 19:05:56 435.675
LilacSat-2 28 Aug 18:56:22 19:00:09 57° 259° (W) 19:03:57 437.200
CUTE 1.7 + AOD 2 28 Aug 18:57:28 18:58:47 11° 61° (ENE) 19:00:07 437.475
BEESAT 3 28 Aug 18:59:54 19:03:52 68° 238° (WSW) 19:07:47 437.485
NOAA 18 28 Aug 19:13:29 19:18:53 54° 259° (W) 19:24:19 137.9125
Cosmos 2504 28 Aug 19:16:31 19:23:48 87° 81° (E) 19:30:59 435.465 / 435.565
STARS 28 Aug 19:19:25 19:21:41 14° 299° (WNW) 19:23:55 437.465
GOMX 1 28 Aug 19:21:42 19:26:33 43° 264° (W) 19:31:41 467.674
DOVE 4 28 Aug 19:22:44 19:27:56 83° 258° (WSW) 19:33:18 437.250
Cosmos 2491 28 Aug 19:23:00 19:31:42 72° 281° (W) 19:40:29 435.465 / 435.565
AIST 2 28 Aug 19:27:51 19:28:49 11° 32° (NNE) 19:29:47 435.215
YUBILEINY 28 Aug 19:41:44 19:48:51 29° 278° (W) 19:55:55 435.215
